Clearfield, PA

12:33 PM EST on February 23, 2017 (GMT -0500)
Clearfield-Lawrence

Weather History for KFIG - February, 2013

Change the Weather History Date:

Thursday, February 7, 2013

  Actual Average (KDUJ) Record (KDUJ)
Temperature  
Mean Temperature 34 °F -  
Max Temperature 55 °F 29 °F 53 °F (2017)
Min Temperature 12 °F 14 °F -1 °F (2007)
Degree Days  
Heating Degree Days 32    
Moisture  
Dew Point 13 °F    
Average Humidity 59    
Maximum Humidity 84    
Minimum Humidity 22    
Precipitation  
Precipitation 0.00 in - - ()
Sea Level Pressure  
Sea Level Pressure 30.26 in    
Wind  
Wind Speed 4 mph (East)    
Max Wind Speed 8 mph    
Max Gust Speed 17 mph    
Visibility 10 miles    
Events      
Averages and records for this station are not official NWS values.
T = Trace of Precipitation, MM = Missing Value Source: NWS Daily Summary

Daily Weather History Graph

Daily Weather History Graph

Search for Another Location

Airport or City:

Trip Planner

Search our weather history database for the weather conditions in past years. The results will help you decide how hot, cold, wet, or windy it might be!

Date:

Astronomy

Feb. 07, 2013 Rise Set
Actual Time 7:17 AM EST 5:38 PM EST
Civil Twilight 6:49 AM EST 6:07 PM EST
Nautical Twilight 6:16 AM EST 6:39 PM EST
Astronomical Twilight 5:44 AM EST 7:11 PM EST
Moon 4:56 AM EST (2/7) 3:00 PM EST (2/7)
Length of Visible Light 11h 18m
Length of Day
10h 20m
Waning Crescent, 9% of the Moon is Illuminated
Feb 7
Waning Crescent
Feb 10
New
Feb 17
First Quarter
Feb 25
Full
Mar 4
Last Quarter

Hourly Weather History & Observations

Time (EST) Temp. Windchill Dew Point Humidity Pressure Visibility Wind Dir Wind Speed Gust Speed Precip Events Conditions
12:54 AM 16.0 °F - 10.0 °F 77% 30.33 in 10.0 mi Calm Calm - N/A   Clear
1:54 AM 15.1 °F - 9.0 °F 77% 30.37 in 10.0 mi Calm Calm - N/A   Clear
2:54 AM 12.9 °F - 8.1 °F 81% 30.35 in 10.0 mi Calm Calm - N/A   Clear
3:54 AM 12.9 °F 3.8 °F 6.1 °F 74% 30.34 in 10.0 mi North 5.8 mph - N/A   Clear
4:54 AM 12.9 °F - 9.0 °F 84% 30.35 in 10.0 mi Calm Calm - N/A   Clear
5:54 AM 12.0 °F 1.5 °F 7.0 °F 80% 30.37 in 10.0 mi NNE 6.9 mph - N/A   Partly Cloudy
6:54 AM 15.1 °F 9.4 °F 9.0 °F 77% 30.38 in 10.0 mi NNE 3.5 mph - N/A   Mostly Cloudy
7:54 AM 16.0 °F 6.3 °F 10.0 °F 77% 30.38 in 10.0 mi NNE 6.9 mph - N/A   Overcast
8:54 AM 19.9 °F 12.1 °F 10.9 °F 68% 30.39 in 10.0 mi NE 5.8 mph - N/A   Overcast
9:54 AM 28.0 °F 20.8 °F 12.9 °F 53% 30.38 in 10.0 mi NE 6.9 mph - N/A   Overcast
11:54 AM 39.0 °F 36.8 °F 16.0 °F 39% 30.32 in 10.0 mi Variable 3.5 mph - N/A   Partly Cloudy
12:54 PM 55.9 °F - 17.1 °F 22% 30.27 in 10.0 mi South 6.9 mph - N/A   Partly Cloudy
1:54 PM 50.0 °F - 18.0 °F 28% 30.25 in 10.0 mi Variable 4.6 mph - N/A   Overcast
2:54 PM 44.1 °F 41.5 °F 19.9 °F 38% 30.23 in 10.0 mi Variable 4.6 mph - N/A   Mostly Cloudy
3:54 PM 44.1 °F 40.8 °F 19.0 °F 37% 30.23 in 10.0 mi Variable 5.8 mph - N/A   Overcast
4:54 PM 43.0 °F 39.5 °F 19.9 °F 40% 30.23 in 10.0 mi SE 5.8 mph - N/A   Overcast
5:54 PM 39.9 °F 35.8 °F 19.9 °F 45% 30.23 in 10.0 mi SE 5.8 mph - N/A   Overcast
6:54 PM - - - N/A% 30.16 in 10.0 mi ESE 4.6 mph - N/A   Clear
7:54 PM - - - N/A% 30.14 in 10.0 mi SE 5.8 mph - N/A   Partly Cloudy
8:54 PM - - - N/A% 30.12 in 10.0 mi SE 5.8 mph - N/A   Overcast
9:54 PM - - - N/A% 30.11 in 10.0 mi SE 8.1 mph - N/A   Mostly Cloudy
10:43 PM - - - N/A% 30.10 in 10.0 mi Variable 4.6 mph - N/A   Mostly Cloudy
10:54 PM - - - N/A% 30.10 in 10.0 mi SSE 6.9 mph - N/A   Mostly Cloudy
11:54 PM - - - N/A% 30.08 in 10.0 mi SSE 8.1 mph 17.3 mph N/A   Overcast